CEB505 RPLL-RJAA

Flight info

Callsign CEB505
Flight time N/A
Altitude 39000
Route CAB2R CAB R597 VIGOR M501 LIMLE DCT KEITH A339 YOSHI Y85 MOE Y81 RUTAS
Aircraft A339/H-SADE1E2E3GHIJ3J5M1P2RWXY/LB2D1

Departure

Time 2026-04-30 21:16
Airport Ninoy Aquino International Airport (RPLL)

Arrival

Time N/A
Airport Narita International Airport (RJAA)
Time Latitude Longitude Altitude Speed Heading
2026-04-30 20:33 14.51564 121.01612 92 ft 0 kts 44°
2026-04-30 20:55 14.51558 121.01605 92 ft 2 kts 44°
2026-04-30 20:56 14.51536 121.01584 92 ft 2 kts 44°
2026-04-30 20:56 14.51527 121.01572 92 ft 2 kts 63°
2026-04-30 20:56 14.51520 121.01542 92 ft 2 kts 95°
2026-04-30 20:57 14.51523 121.01527 92 ft 2 kts 111°
2026-04-30 20:57 14.51530 121.01514 92 ft 2 kts 127°
2026-04-30 20:57 14.51535 121.01507 92 ft 1 kts 135°
2026-04-30 20:58 14.51537 121.01505 92 ft 0 kts 135°
2026-04-30 21:02 14.51535 121.01507 92 ft 1 kts 135°
2026-04-30 21:02 14.51524 121.01518 92 ft 3 kts 135°
2026-04-30 21:02 14.51503 121.01540 92 ft 5 kts 134°
2026-04-30 21:03 14.51474 121.01571 92 ft 6 kts 134°
2026-04-30 21:03 14.51437 121.01610 92 ft 8 kts 134°
2026-04-30 21:03 14.51393 121.01656 92 ft 9 kts 135°
2026-04-30 21:03 14.51345 121.01704 92 ft 10 kts 135°
2026-04-30 21:04 14.51291 121.01759 92 ft 11 kts 135°
2026-04-30 21:04 14.51234 121.01818 92 ft 11 kts 134°
2026-04-30 21:04 14.51123 121.01935 92 ft 12 kts 135°
2026-04-30 21:05 14.51074 121.01984 92 ft 6 kts 140°
2026-04-30 21:05 14.51045 121.01983 92 ft 4 kts 215°
2026-04-30 21:05 14.51021 121.01949 92 ft 6 kts 238°
2026-04-30 21:05 14.50995 121.01903 92 ft 8 kts 239°
2026-04-30 21:06 14.50964 121.01849 92 ft 9 kts 239°
2026-04-30 21:06 14.50929 121.01786 92 ft 10 kts 240°
2026-04-30 21:06 14.50890 121.01718 92 ft 11 kts 240°
2026-04-30 21:06 14.50849 121.01642 92 ft 12 kts 240°
2026-04-30 21:07 14.50811 121.01572 92 ft 8 kts 240°
2026-04-30 21:07 14.50778 121.01514 92 ft 10 kts 240°
2026-04-30 21:07 14.50745 121.01454 92 ft 9 kts 240°
2026-04-30 21:07 14.50712 121.01395 92 ft 10 kts 239°
2026-04-30 21:08 14.50675 121.01328 92 ft 11 kts 240°
2026-04-30 21:08 14.50636 121.01257 92 ft 12 kts 240°
2026-04-30 21:08 14.50592 121.01180 92 ft 12 kts 240°
2026-04-30 21:08 14.50553 121.01110 92 ft 11 kts 240°
2026-04-30 21:09 14.50512 121.01035 92 ft 12 kts 240°
2026-04-30 21:09 14.50467 121.00954 92 ft 12 kts 240°
2026-04-30 21:09 14.50425 121.00880 92 ft 12 kts 239°
2026-04-30 21:09 14.50381 121.00801 92 ft 11 kts 240°
2026-04-30 21:10 14.50343 121.00733 92 ft 12 kts 240°
2026-04-30 21:10 14.50301 121.00657 92 ft 12 kts 240°
2026-04-30 21:10 14.50256 121.00577 92 ft 13 kts 240°
2026-04-30 21:10 14.50209 121.00492 92 ft 14 kts 240°
2026-04-30 21:11 14.50160 121.00404 92 ft 14 kts 240°
2026-04-30 21:11 14.50108 121.00312 92 ft 14 kts 240°
2026-04-30 21:11 14.50057 121.00219 92 ft 15 kts 240°
2026-04-30 21:11 14.50004 121.00123 92 ft 15 kts 240°
2026-04-30 21:12 14.49950 121.00026 92 ft 13 kts 240°
2026-04-30 21:12 14.49916 120.99972 92 ft 6 kts 218°
2026-04-30 21:12 14.49896 120.99967 92 ft 0 kts 177°
2026-04-30 21:13 14.49895 120.99967 92 ft 0 kts 177°
2026-04-30 21:13 14.49885 120.99968 92 ft 2 kts 173°
2026-04-30 21:13 14.49865 120.99974 92 ft 3 kts 158°
2026-04-30 21:14 14.49835 120.99989 92 ft 5 kts 151°
2026-04-30 21:14 14.49803 121.00017 92 ft 6 kts 117°
2026-04-30 21:14 14.49811 121.00061 92 ft 4 kts 61°
2026-04-30 21:14 14.49812 121.00063 92 ft 0 kts 61°
2026-04-30 21:15 14.49858 121.00145 92 ft 40 kts 60°
2026-04-30 21:16 14.50099 121.00581 93 ft 99 kts 60°
2026-04-30 21:16 14.50530 121.01353 101 ft 147 kts 60°
2026-04-30 21:16 14.51063 121.02277 414 ft 157 kts 62°
2026-04-30 21:16 14.51586 121.03233 1065 ft 148 kts 61°
2026-04-30 21:17 14.52062 121.04115 1601 ft 140 kts 60°
2026-04-30 21:17 14.52535 121.04977 1871 ft 147 kts 60°
2026-04-30 21:17 14.53040 121.05898 2104 ft 158 kts 59°
2026-04-30 21:17 14.53619 121.06939 2365 ft 171 kts 61°
2026-04-30 21:18 14.54234 121.08048 2637 ft 185 kts 60°
2026-04-30 21:18 14.54879 121.09219 2912 ft 200 kts 60°
2026-04-30 21:18 14.55595 121.10512 3191 ft 215 kts 59°
2026-04-30 21:18 14.56364 121.11871 3504 ft 232 kts 53°
2026-04-30 21:19 14.57595 121.13032 3824 ft 251 kts 28°
2026-04-30 21:19 14.59304 121.13500 4228 ft 267 kts
2026-04-30 21:19 14.61107 121.13526 4955 ft 269 kts
2026-04-30 21:19 14.63000 121.13517 5747 ft 268 kts
2026-04-30 21:20 14.64868 121.13513 6486 ft 270 kts 360°
2026-04-30 21:20 14.66728 121.13515 7186 ft 272 kts
2026-04-30 21:20 14.68609 121.13506 7874 ft 274 kts 357°
2026-04-30 21:20 14.70505 121.13276 8560 ft 276 kts 348°
2026-04-30 21:21 14.72308 121.12762 9224 ft 278 kts 341°
2026-04-30 21:21 14.74182 121.12098 9916 ft 281 kts 340°
2026-04-30 21:21 14.77933 121.10727 10787 ft 304 kts 340°
2026-04-30 21:22 14.80002 121.09977 11083 ft 321 kts 339°
2026-04-30 21:22 14.86771 121.07545 11878 ft 369 kts 340°
2026-04-30 21:23 14.89271 121.06838 11898 ft 375 kts 346°
2026-04-30 21:23 14.91827 121.06390 11983 ft 381 kts 352°
2026-04-30 21:23 14.97076 121.05981 13459 ft 383 kts 355°
2026-04-30 21:24 14.99784 121.05801 14213 ft 385 kts 355°
2026-04-30 21:24 15.02459 121.05623 14919 ft 387 kts 355°
2026-04-30 21:24 15.05090 121.05444 15613 ft 389 kts 355°
2026-04-30 21:24 15.07828 121.05256 16308 ft 392 kts 355°
2026-04-30 21:25 15.12914 121.04903 17520 ft 397 kts 356°
2026-04-30 21:25 15.15454 121.04727 18101 ft 401 kts 356°
2026-04-30 21:25 15.18151 121.04540 18698 ft 404 kts 356°
2026-04-30 21:26 15.23780 121.04149 19890 ft 411 kts 356°
2026-04-30 21:26 15.26608 121.03952 20447 ft 414 kts 356°
2026-04-30 21:27 15.32375 121.03551 21509 ft 421 kts 357°
2026-04-30 21:27 15.35254 121.03350 22005 ft 424 kts 357°
2026-04-30 21:27 15.38196 121.03146 22490 ft 428 kts 357°
2026-04-30 21:28 15.44136 121.03010 23388 ft 433 kts 10°
2026-04-30 21:28 15.46972 121.03934 23817 ft 435 kts 26°
2026-04-30 21:28 15.51456 121.08104 24693 ft 441 kts 56°
2026-04-30 21:29 15.52979 121.10745 25136 ft 443 kts 58°
2026-04-30 21:29 15.57652 121.19069 26358 ft 451 kts 59°
2026-04-30 21:30 15.60871 121.24753 26710 ft 466 kts 59°
2026-04-30 21:31 15.65768 121.33421 27637 ft 476 kts 59°
2026-04-30 21:31 15.69056 121.39239 28320 ft 480 kts 59°
2026-04-30 21:32 15.72408 121.45173 29290 ft 477 kts 59°
2026-04-30 21:32 15.74060 121.48103 29755 ft 475 kts 54°
2026-04-30 21:32 15.75715 121.51012 30566 ft 464 kts 59°
2026-04-30 21:32 15.77271 121.53812 31287 ft 454 kts 62°
2026-04-30 21:33 15.78813 121.56603 31615 ft 456 kts 59°
2026-04-30 21:33 15.82042 121.62298 31863 ft 468 kts 59°
2026-04-30 21:33 15.83630 121.65097 32047 ft 471 kts 59°
2026-04-30 21:34 15.85340 121.68121 32393 ft 472 kts 59°
2026-04-30 21:34 15.88601 121.73901 33193 ft 469 kts 59°
2026-04-30 21:34 15.90225 121.76785 33566 ft 468 kts 59°
2026-04-30 21:35 15.91853 121.79679 33920 ft 467 kts 59°
2026-04-30 21:35 15.93471 121.82558 34263 ft 467 kts 59°
2026-04-30 21:35 15.95116 121.85487 34606 ft 466 kts 59°
2026-04-30 21:35 15.96749 121.88395 34939 ft 465 kts 59°
2026-04-30 21:36 15.98362 121.91268 35261 ft 465 kts 59°
2026-04-30 21:36 16.00000 121.94186 35580 ft 464 kts 59°
2026-04-30 21:37 16.04818 122.02780 36457 ft 462 kts 59°
2026-04-30 21:37 16.06425 122.05650 36717 ft 462 kts 59°
2026-04-30 21:37 16.08045 122.08541 36963 ft 462 kts 59°
2026-04-30 21:37 16.09654 122.11416 37196 ft 462 kts 59°
2026-04-30 21:38 16.11231 122.14235 37393 ft 463 kts 59°
2026-04-30 21:38 16.12855 122.17138 37573 ft 464 kts 59°
2026-04-30 21:38 16.14470 122.20026 37746 ft 466 kts 59°
2026-04-30 21:38 16.16091 122.22928 37920 ft 467 kts 59°
2026-04-30 21:39 16.17730 122.25861 38092 ft 468 kts 59°
2026-04-30 21:39 16.19346 122.28754 38256 ft 469 kts 59°
2026-04-30 21:39 16.20988 122.31696 38417 ft 470 kts 59°
2026-04-30 21:39 16.22619 122.34619 38572 ft 470 kts 59°
2026-04-30 21:40 16.24268 122.37576 38723 ft 471 kts 59°
2026-04-30 21:40 16.25910 122.40520 38869 ft 472 kts 59°
2026-04-30 21:40 16.27557 122.43476 38978 ft 474 kts 59°
2026-04-30 21:40 16.29198 122.46421 38984 ft 474 kts 59°
2026-04-30 21:41 16.32489 122.52331 38987 ft 475 kts 59°
2026-04-30 21:41 16.35801 122.58282 38988 ft 475 kts 59°
2026-04-30 21:42 16.39087 122.64192 38988 ft 475 kts 59°
2026-04-30 21:42 16.42378 122.70121 38988 ft 475 kts 60°
2026-04-30 21:43 16.45656 122.76038 38988 ft 475 kts 60°
2026-04-30 21:43 16.48934 122.81953 38988 ft 475 kts 60°
2026-04-30 21:44 16.52197 122.87840 38988 ft 475 kts 60°
2026-04-30 21:44 16.55489 122.93787 38988 ft 475 kts 60°
2026-04-30 21:45 16.58742 122.99670 38988 ft 475 kts 60°
2026-04-30 21:45 16.62033 123.05627 38988 ft 475 kts 60°
2026-04-30 21:46 16.65287 123.11523 38988 ft 475 kts 60°
2026-04-30 21:46 16.68583 123.17500 38988 ft 475 kts 60°
2026-04-30 21:47 16.71857 123.23442 38988 ft 475 kts 60°
2026-04-30 21:47 16.75117 123.29365 38988 ft 475 kts 60°
2026-04-30 21:48 16.78364 123.35268 38988 ft 475 kts 60°
2026-04-30 21:48 16.81626 123.41202 38988 ft 475 kts 60°
2026-04-30 21:49 16.84900 123.47163 38988 ft 475 kts 60°
2026-04-30 21:49 16.88142 123.53073 38988 ft 475 kts 60°
2026-04-30 21:50 16.91411 123.59036 38988 ft 474 kts 60°
2026-04-30 21:50 16.94661 123.64971 38988 ft 474 kts 60°
2026-04-30 21:51 16.97908 123.70904 38988 ft 475 kts 60°
2026-04-30 21:51 17.01128 123.76791 38988 ft 475 kts 60°
2026-04-30 21:52 17.04399 123.82778 38988 ft 475 kts 60°
2026-04-30 21:52 17.07649 123.88733 38988 ft 475 kts 60°
2026-04-30 21:53 17.10887 123.94670 38988 ft 475 kts 60°
2026-04-30 21:53 17.14131 124.00626 38988 ft 475 kts 60°
2026-04-30 21:54 17.17392 124.06618 38988 ft 475 kts 60°
2026-04-30 21:54 17.20641 124.12589 38988 ft 475 kts 60°
2026-04-30 21:55 17.23866 124.18523 38988 ft 475 kts 60°
2026-04-30 21:55 17.27109 124.24494 38988 ft 475 kts 60°
2026-04-30 21:56 17.30338 124.30447 38988 ft 475 kts 60°
2026-04-30 21:56 17.33341 124.36512 38988 ft 475 kts 68°
2026-04-30 21:57 17.35263 124.43085 38988 ft 474 kts 79°
2026-04-30 21:57 17.35920 124.49869 38988 ft 474 kts 90°
2026-04-30 21:58 17.35418 124.56691 38989 ft 474 kts 97°
2026-04-30 21:58 17.34618 124.63452 38988 ft 474 kts 97°
2026-04-30 21:59 17.33813 124.70277 38988 ft 474 kts 97°
2026-04-30 22:00 17.32622 124.80537 38988 ft 474 kts 97°
2026-04-30 22:00 17.31431 124.90778 38988 ft 475 kts 97°
2026-04-30 22:01 17.30639 124.97611 38988 ft 475 kts 97°
2026-04-30 22:01 17.29841 125.04484 38988 ft 475 kts 97°
2026-04-30 22:02 17.29051 125.11282 38988 ft 475 kts 97°
2026-04-30 22:02 17.28253 125.18115 38988 ft 475 kts 97°
2026-04-30 22:03 17.27450 125.24986 38988 ft 475 kts 97°
2026-04-30 22:03 17.26648 125.31820 38988 ft 475 kts 97°
2026-04-30 22:04 17.25849 125.38609 38988 ft 475 kts 97°
2026-04-30 22:05 17.24639 125.48852 38988 ft 475 kts 97°
2026-04-30 22:05 17.23828 125.55692 38988 ft 475 kts 97°
2026-04-30 22:06 17.23017 125.62513 38988 ft 475 kts 97°
2026-04-30 22:06 17.21794 125.72758 38988 ft 475 kts 97°
2026-04-30 22:07 17.20976 125.79582 38988 ft 475 kts 97°
2026-04-30 22:07 17.20155 125.86423 38988 ft 475 kts 97°
2026-04-30 22:08 17.19334 125.93245 38988 ft 474 kts 97°
2026-04-30 22:08 17.18505 126.00105 38988 ft 474 kts 97°
2026-04-30 22:09 17.17679 126.06918 38988 ft 474 kts 97°
2026-04-30 22:09 17.16853 126.13721 38988 ft 474 kts 97°
2026-04-30 22:10 17.16021 126.20561 38988 ft 474 kts 97°
2026-04-30 22:10 17.15187 126.27393 38988 ft 474 kts 97°
2026-04-30 22:11 17.13935 126.37618 38988 ft 474 kts 97°
2026-04-30 22:12 17.13099 126.44456 38988 ft 475 kts 97°
2026-04-30 22:12 17.12259 126.51334 38989 ft 481 kts 97°
2026-04-30 22:13 17.11409 126.58199 38988 ft 482 kts 97°
2026-04-30 22:13 17.10546 126.65105 38988 ft 482 kts 97°
2026-04-30 22:14 17.09681 126.72037 38988 ft 482 kts 97°
2026-04-30 22:14 17.08817 126.78957 38988 ft 482 kts 97°
2026-04-30 22:15 17.07951 126.85883 38988 ft 482 kts 97°
2026-04-30 22:15 17.07082 126.92811 38988 ft 482 kts 97°
2026-04-30 22:16 17.06215 126.99709 38988 ft 482 kts 97°
2026-04-30 22:17 17.04464 127.13578 38988 ft 482 kts 97°
2026-04-30 22:17 17.03149 127.23953 38988 ft 482 kts 97°
2026-04-30 22:18 17.01824 127.34355 38988 ft 482 kts 97°
2026-04-30 22:19 17.00501 127.44701 38988 ft 482 kts 97°
2026-04-30 22:20 16.99162 127.55129 38989 ft 482 kts 97°
2026-04-30 22:20 16.97828 127.65475 38989 ft 482 kts 98°
2026-04-30 22:21 16.96928 127.72424 38988 ft 482 kts 98°
2026-04-30 22:21 16.96035 127.79309 38988 ft 482 kts 98°
2026-04-30 22:22 16.95135 127.86223 38988 ft 482 kts 98°
2026-04-30 22:22 16.94230 127.93166 38988 ft 482 kts 98°
2026-04-30 22:23 16.93327 128.00070 38988 ft 482 kts 98°
2026-04-30 22:23 16.92419 128.06992 38988 ft 482 kts 98°
2026-04-30 22:24 16.91512 128.13896 38988 ft 482 kts 98°
2026-04-30 22:24 16.90598 128.20827 38988 ft 482 kts 98°
2026-04-30 22:25 16.89688 128.27713 38988 ft 482 kts 98°
2026-04-30 22:25 16.88768 128.34659 38988 ft 482 kts 98°
2026-04-30 22:26 16.87393 128.44995 38988 ft 482 kts 98°
2026-04-30 22:27 16.86471 128.51904 38988 ft 482 kts 98°
2026-04-30 22:27 16.85085 128.62271 38988 ft 482 kts 98°
2026-04-30 22:28 16.83704 128.72559 38988 ft 482 kts 98°
2026-04-30 22:29 16.81825 128.86485 38988 ft 482 kts 98°
2026-04-30 22:31 16.78538 129.10672 38988 ft 482 kts 98°
2026-04-30 22:32 16.76179 129.27899 38988 ft 482 kts 98°
2026-04-30 22:33 16.73800 129.45171 38988 ft 482 kts 98°
2026-04-30 22:35 16.71406 129.62442 38988 ft 482 kts 98°
2026-04-30 22:36 16.69003 129.79700 38988 ft 482 kts 98°
2026-04-30 22:37 16.67708 129.93514 38987 ft 482 kts 85°
2026-04-30 22:37 16.69144 130.00314 38988 ft 482 kts 69°
2026-04-30 22:38 16.72269 130.06459 38988 ft 482 kts 54°
2026-04-30 22:39 16.78990 130.14215 38989 ft 482 kts 46°
2026-04-30 22:40 16.92817 130.29323 38988 ft 482 kts 46°
2026-04-30 22:41 17.04334 130.42012 38988 ft 482 kts 46°
2026-04-30 22:43 17.18106 130.57220 38988 ft 482 kts 46°
2026-04-30 22:44 17.27213 130.67299 38988 ft 482 kts 46°
2026-04-30 22:45 17.40977 130.82561 38988 ft 482 kts 46°
2026-04-30 22:47 17.54662 130.97769 38988 ft 482 kts 46°
2026-04-30 22:48 17.63817 131.07964 38988 ft 482 kts 46°
2026-04-30 22:49 17.77442 131.23166 38988 ft 482 kts 46°
2026-04-30 22:51 17.91132 131.38477 38988 ft 482 kts 46°
2026-04-30 22:52 17.97621 131.45747 38988 ft 482 kts 46°
2026-04-30 22:53 18.06702 131.55936 38988 ft 482 kts 46°
2026-04-30 22:53 18.13465 131.63535 38988 ft 482 kts 46°
2026-04-30 22:55 18.24871 131.76372 38988 ft 482 kts 47°
2026-04-30 22:56 18.33959 131.86616 38988 ft 482 kts 47°
2026-04-30 22:57 18.45290 131.99416 38988 ft 482 kts 47°
2026-04-30 22:58 18.54341 132.09659 38988 ft 482 kts 47°
2026-04-30 22:59 18.67942 132.25084 38988 ft 482 kts 47°